{"data":{"norad_id":67079,"epoch":"2026-09-20T21:54:29.327616Z","epoch_age_seconds":42547,"freshness":"FRESH","line1":"1 67079U 25298E   26263.91283944  .00004624  00000+0  39489-3 0  9995","line2":"2 67079  69.9984 242.0880 0003905 265.3131  94.7582 14.98346051 42460","mean_motion":14.98346051,"eccentricity":0.0003905,"inclination_deg":69.9984,"raan_deg":242.088,"arg_perigee_deg":265.3131,"mean_anomaly_deg":94.7582,"bstar":0.00039489,"rev_number":4246,"period_min":96.105969581522,"perigee_km":569.292224053,"apogee_km":574.72028593515,"semimajor_km":6950.1432549941,"source":"CELESTRAK","updated_at":"2026-09-21T09:00:36.098091Z"}}